CW3778 Weather Reports


Display with metric or nautical units.
time (UTC)temp
F
wind
direction
speed
MPH
gust
MPH
rain 1hr
in
rain 24hr
in
rain mn
in
humidity
%
barometer
mb
20260504050528 56 239 1.0 3.0 0.00 0.03 0.00 21 1006.4
20260504045629 57 240 2.0 4.0 0.00 0.03 0.03 23 1006.4
20260504044729 57 240 3.0 4.0 0.00 0.03 0.03 24 1006.4
20260504043828 57 244 3.0 8.0 0.00 0.03 0.03 26 1006.3
20260504042929 57 237 3.0 5.0 0.00 0.03 0.03 27 1006.3
20260504042028 58 244 2.0 4.0 0.00 0.03 0.03 28 1006.3
20260504041129 58 244 3.0 5.0 0.00 0.03 0.03 29 1006.3
20260504040229 58 246 3.0 5.0 0.00 0.03 0.03 30 1006.2
20260504034429 58 235 3.0 5.0 0.00 0.03 0.03 32 1006.1
20260504033528 58 236 3.0 5.0 0.00 0.03 0.03 33 1006.2
20260504032629 59 238 3.0 5.0 0.00 0.03 0.03 34 1006.3
20260504031729 59 242 3.0 4.0 0.00 0.03 0.03 35 1006.3
20260504025929 60 245 3.0 4.0 0.00 0.03 0.03 38 1006.6
20260504025028 60 249 3.0 5.0 0.00 0.03 0.03 39 1006.5
20260504024128 60 250 2.0 4.0 0.00 0.03 0.03 39 1006.5
20260504023228 61 251 3.0 4.0 0.00 0.03 0.03 40 1006.4
20260504021429 61 251 2.0 4.0 0.00 0.03 0.03 41 1006.5
20260504020528 62 245 3.0 5.0 0.00 0.03 0.03 41 1006.4
20260504015628 62 231 2.0 4.0 0.00 0.03 0.03 41 1006.3
20260504013829 63 247 3.0 5.0 0.00 0.03 0.03 42 1006.2
20260504012928 63 241 3.0 6.0 0.00 0.03 0.03 42 1006.1
20260504012028 63 249 3.0 5.0 0.00 0.03 0.03 42 1006.1
20260504011128 64 250 3.0 5.0 0.00 0.03 0.03 42 1006.1
20260504010228 64 255 2.0 5.0 0.00 0.03 0.03 42 1006.2
20260504005328 65 271 1.0 4.0 0.00 0.03 0.03 42 1006.1
20260504004428 66 0 0.0 2.0 0.00 0.03 0.03 41 1006.1
20260504003528 66 273 1.0 2.0 0.00 0.03 0.03 40 1006.1
20260504002628 66 273 1.0 4.0 0.00 0.03 0.03 39 1006.0
20260504001729 67 269 2.0 4.0 0.00 0.03 0.03 39 1006.1
20260504000828 67 282 2.0 6.0 0.00 0.03 0.03 39 1006.1
20260503235928 67 259 3.0 6.0 0.00 0.03 0.03 39 1006.1
20260503235028 68 254 3.0 8.0 0.00 0.03 0.03 38 1006.1
20260503234128 68 262 2.0 6.0 0.00 0.03 0.03 38 1006.2
20260503233228 68 264 3.0 9.0 0.00 0.03 0.03 38 1006.2
20260503232328 68 270 2.0 7.0 0.00 0.03 0.03 38 1006.2
20260503225650 69 260 5.0 12.0 0.00 0.03 0.03 36 1006.3
20260503224750 69 245 4.0 10.0 0.00 0.03 0.03 36 1006.3
20260503223850 69 252 4.0 9.0 0.00 0.03 0.03 36 1006.4
20260503222050 69 270 5.0 14.0 0.00 0.03 0.03 35 1006.5
20260503221150 69 258 4.0 9.0 0.00 0.03 0.03 35 1006.5
20260503220250 69 255 5.0 11.0 0.00 0.03 0.03 36 1006.6
20260503215350 69 251 5.0 11.0 0.00 0.03 0.03 35 1006.6
20260503214450 68 241 4.0 10.0 0.00 0.03 0.03 36 1006.5
20260503213550 68 238 5.0 10.0 0.00 0.03 0.03 35 1006.7
20260503212650 68 242 5.0 10.0 0.00 0.03 0.03 35 1006.8
20260503211750 68 239 5.0 9.0 0.00 0.03 0.03 35 1007.0
20260503210850 68 256 5.0 11.0 0.00 0.03 0.03 35 1007.1
20260503205950 67 254 5.0 13.0 0.00 0.03 0.03 35 1007.3
20260503205050 67 240 7.0 12.0 0.00 0.03 0.03 35 1007.4
20260503204150 67 238 5.0 12.0 0.00 0.03 0.03 34 1007.7
20260503203250 67 236 5.0 12.0 0.00 0.03 0.03 34 1008.0
20260503202350 66 243 7.0 14.0 0.00 0.03 0.03 35 1008.1
20260503201450 65 253 7.0 16.0 0.00 0.03 0.03 34 1008.3
20260503195650 66 247 7.0 15.0 0.00 0.03 0.03 32 1008.5
20260503193850 65 238 6.0 14.0 0.00 0.03 0.03 28 1008.7
20260503192950 64 242 6.0 12.0 0.00 0.03 0.03 23 1008.8
20260503191150 63 234 5.0 14.0 0.00 0.03 0.03 15 1009.1
20260503190250 62 215 5.0 12.0 0.00 0.03 0.03 12 1009.3
20260503185350 61 211 5.0 10.0 0.00 0.03 0.03 9 1009.2
20260503183550 60 215 5.0 14.0 0.00 0.03 0.03 5 1009.5
20260503182650 59 203 6.0 14.0 0.00 0.03 0.03 2 1009.9
20260503181750 59 213 5.0 14.0 0.00 0.03 0.03 1 1010.0
20260503180850 58 199 4.0 10.0 0.00 0.03 0.03 1 1010.2
20260503175950 57 222 4.0 10.0 0.00 0.03 0.03 1 1010.4
20260503175050 56 199 5.0 11.0 0.00 0.03 0.03 1 1010.6
20260503174150 56 229 5.0 11.0 0.01 0.03 0.03 1 1010.7
20260503173250 55 201 3.0 9.0 0.01 0.03 0.03 1 1010.8
20260503172350 54 198 3.0 9.0 0.01 0.03 0.03 1 1011.2
20260503150850 52 254 5.0 10.0 0.00 0.00 0.00 1 1014.3
20260503130249 48 247 3.0 6.0 0.00 0.00 0.00 10 1014.8
20260503100152 45 238 4.0 8.0 0.00 0.00 0.00 34 1014.4
20260503081353 45 242 4.0 7.0 0.00 0.00 0.00 45 1014.9
20260503072853 46 249 3.0 6.0 0.00 0.00 0.00 45 1014.9
20260503071952 45 239 3.0 6.0 0.00 0.00 0.00 46 1015.1
20260503070152 45 241 3.0 6.0 0.00 0.00 0.00 46 1015.2